EST,Max TemperatureF,Mean TemperatureF,Min TemperatureF,Max Dew PointF,MeanDew PointF,Min DewpointF,Max Humidity, Mean Humidity, Min Humidity, Max Sea Level PressureIn, Mean Sea Level PressureIn, Min Sea Level PressureIn, Max VisibilityMiles, Mean VisibilityMiles, Min VisibilityMiles, Max Wind SpeedMPH, Mean Wind SpeedMPH, Max Gust SpeedMPH,PrecipitationIn, CloudCover, Events, WindDirDegrees
2011-12-1,51,39,26,31,26,23,85,62,39,30.38,30.32,30.25,10,10,10,6,1,8,0.00,0,,173
2011-12-2,54,43,31,31,27,24,78,57,35,30.50,30.42,30.32,10,10,10,8,3,12,0.00,0,,238
2011-12-3,63,51,39,32,27,23,60,44,27,30.48,30.41,30.32,10,10,10,7,2,10,0.00,0,,139
2011-12-4,65,55,44,41,34,24,51,44,36,30.31,30.26,30.17,10,10,10,15,5,29,0.00,0,,198
2011-12-5,65,60,54,52,46,41,93,73,52,30.17,30.08,29.98,10,10,5,9,3,13,0.22,5,Rain,143
2011-12-6,56,49,41,54,45,39,96,91,86,30.09,30.02,29.97,10,2,0,9,2,14,0.49,8,Fog-Rain,311
2011-12-7,41,35,28,38,32,23,93,83,72,30.20,29.95,29.84,10,4,0,15,5,23,0.81,8,Fog-Rain-Snow,323
2011-12-8,43,34,25,27,23,21,85,66,46,30.35,30.28,30.21,10,10,8,8,2,12,0.00,1,,208
2011-12-9,48,37,26,28,23,21,84,61,38,30.35,30.28,30.23,10,10,10,8,3,14,0.00,1,,267
2011-12-10,39,33,26,28,19,11,82,59,35,30.54,30.47,30.35,10,10,9,10,2,14,T,2,,346
2011-12-11,46,34,21,17,14,11,68,48,27,30.59,30.52,30.45,10,10,10,6,1,9,0.00,0,,52
2011-12-12,48,38,28,36,24,15,65,54,42,30.50,30.44,30.41,10,10,10,6,1,8,0.00,5,,165
2011-12-13,51,47,42,43,40,36,89,79,68,30.50,30.43,30.38,10,10,8,6,1,8,0.00,8,,224
2011-12-14,67,57,47,48,45,43,86,69,52,30.38,30.25,30.10,10,10,10,9,2,17,0.00,3,,225
2011-12-15,62,56,50,55,50,43,93,77,60,30.15,30.04,29.97,10,8,1,9,5,20,0.09,7,Rain,249
2011-12-16,50,41,32,34,31,28,92,83,74,30.31,30.26,30.20,9,3,0,7,2,12,0.24,8,Fog-Rain-Snow,326
2011-12-17,40,35,30,28,25,21,85,70,54,30.35,30.29,30.24,10,10,7,8,3,13,0.00,5,,240
2011-12-18,48,38,28,29,27,24,85,67,49,30.37,30.30,30.25,10,10,10,10,3,16,0.00,1,,214
2011-12-19,52,44,35,31,27,25,70,54,38,30.24,30.19,30.14,10,10,10,10,4,17,T,4,,209
2011-12-20,58,51,43,50,38,27,77,61,45,30.17,30.06,29.96,10,10,10,10,3,17,0.01,5,Rain,204
2011-12-21,63,55,46,54,48,38,93,68,42,30.01,29.86,29.78,10,8,1,18,6,35,0.30,5,Rain,226
2011-12-22,51,46,40,43,41,37,96,84,71,30.09,29.98,29.90,10,5,0,12,3,17,0.88,6,Fog-Rain,360
2011-12-23,44,41,38,41,37,34,96,86,76,30.34,30.23,30.06,10,9,5,8,2,14,0.02,8,Rain,308
2011-12-24,46,39,31,35,30,27,92,73,53,30.48,30.40,30.34,10,10,7,8,3,12,0.00,2,,247
2011-12-25,53,42,30,32,26,21,82,57,32,30.36,30.29,30.17,10,10,10,13,5,20,0.00,0,,246
2011-12-26,46,38,29,29,26,24,82,64,45,30.41,30.26,29.96,10,10,10,10,2,17,0.00,0,,51
2011-12-27,46,40,34,41,35,27,92,74,55,29.94,29.67,29.49,10,4,0,22,6,45,1.12,8,Fog-Rain-Snow,234
2011-12-28,44,38,32,32,27,23,89,67,45,30.09,30.02,29.88,10,10,6,14,5,21,T,5,,258
2011-12-29,51,41,31,30,27,24,78,60,42,30.02,29.95,29.86,10,10,10,13,4,22,0.00,1,,208
2011-12-30,59,51,43,42,36,28,70,59,47,29.95,29.86,29.73,10,10,10,17,6,32,T,5,Rain,209
2011-12-31,53,47,41,38,35,34,71,64,56,30.10,30.01,29.81,10,10,10,13,4,25,0.00,4,,196